Flag for Norway Weather past 2 weeks in Sandnessjøen, Norway

Now
55 °F

Partly sunny.


Feels Like: 55 °F
Forecast: 54 / 59 °F
Wind: 2 mph from North

Location: Sandnessjoen / Stokka

Current Time: Aug 21, 2014 at 8:28:28 AM

Latest Report: Aug 21, 2014 at 7:50 AM


Visibility: N/A

Pressure: 29.50 "Hg

Humidity: 88%

Dew point: 52 °F

Location of SandnessjøenLocation

Historic Weather in Sandnessjøen — Graph

°F

Sandnessjøen temperature yesterday

Maximum temperature yesterday: 64 °F (at 4:50 PM)
Minimum temperature yesterday: 50 °F (at 4:20 AM)
Average temperature yesterday: 58 °F

Past Weeks' High & Low Weather Summary

 TemperatureHumidityPressure
High73 °F (Aug 11, 1:50 PM)100% (Aug 6, 11:20 AM)29.98 "Hg (Aug 6, 11:20 AM)
Low45 °F (Aug 16, 4:50 AM)44% (Aug 11, 7:20 PM)29.27 "Hg (Aug 18, 9:50 PM)
Average60 °F77%29.60 "Hg
* Reported Aug 6 6:20 AM — Aug 21 6:50 AM, Sandnessjøen, Weather by CustomWeather, © 2014

Note: Actual official high and low records may vary slightly from our data, if they occured in-between our weather recording intervals... More about our weather records

Advertising

Sandnessjøen weather history for previous 24 hours

 ConditionsComfort  
Time TempWeatherWind HumidityBarometerVisibility
6:50 AM
Aug 21
54 °FPartly sunny.2 mph94%29.47 "HgN/A
6:20 AM54 °FPartly sunny.2 mph94%29.47 "HgN/A
5:50 AM54 °FPassing clouds.2 mph88%29.47 "HgN/A
5:20 AM54 °FPassing clouds.2 mph88%29.47 "HgN/A
4:50 AM54 °FLight rain. Passing clouds.2 mph94%29.47 "HgN/A
10:20 PM
Aug 20
55 °FScattered clouds.2 mph88%29.45 "HgN/A
9:50 PM57 °FScattered clouds.2 mph88%29.45 "HgN/A
9:20 PM57 °FScattered clouds.2 mph88%29.45 "HgN/A
8:50 PM59 °FScattered clouds.2 mph82%29.45 "HgN/A
8:20 PM59 °FScattered clouds.2 mph88%29.45 "HgN/A
7:50 PM59 °FScattered clouds.5 mph82%29.45 "HgN/A
7:20 PM61 °FScattered clouds.8 mph72%29.45 "HgN/A
6:50 PM61 °FScattered clouds.9 mph72%29.45 "HgN/A
6:20 PM63 °FScattered showers. Scattered clouds.8 mph73%29.45 "HgN/A
5:50 PM63 °FScattered showers. Scattered clouds.10 mph73%29.45 "HgN/A
4:50 PM64 °FScattered clouds.8 mph68%29.45 "HgN/A
3:50 PM63 °FScattered clouds.8 mph73%29.42 "HgN/A
3:20 PM63 °FScattered clouds.5 mph73%29.42 "HgN/A
2:50 PM61 °FScattered clouds.3 mph77%29.42 "HgN/A
2:20 PM61 °FScattered clouds.3 mph72%29.42 "HgN/A
1:50 PM63 °FScattered clouds.3 mph68%29.42 "HgN/A
1:20 PM61 °FScattered clouds.5 mph77%29.42 "HgN/A
12:50 PM61 °FScattered clouds.3 mph72%29.42 "HgN/A
12:20 PM63 °FScattered clouds.2 mph73%29.42 "HgN/A
11:50 AM61 °FSunny.2 mph77%29.42 "Hg10 mi
11:20 AM61 °FSunny.2 mph77%29.42 "Hg10 mi
10:50 AM59 °FSunny.3 mph82%29.42 "Hg10 mi
10:20 AM59 °FSunny.3 mph82%29.42 "Hg10 mi
9:50 AM57 °FSunny.3 mph88%29.39 "Hg10 mi
9:20 AM55 °FSunny.2 mph88%29.39 "Hg10 mi
8:50 AM55 °FSunny.2 mph88%29.39 "Hg10 mi
8:20 AM55 °FSunny.1 mph88%29.39 "Hg10 mi
Weather by CustomWeather, © 2014

See weather overviewHow to use our weather pages